NVA1003 SAME-SANR

Flight info

Callsign NVA1003
Flight time N/A
Altitude 18000
Route MEBRA1C MEBRA W3 JUA/N0254F190 W3 LAR Z119 CAT W3 SORTI
Aircraft B190/M-SDFGRY/S

Departure

Time 2026-05-09 14:00
Airport Governor Francisco Gabrielli International Airport (SAME)

Arrival

Time N/A
Airport Termas de Río Hondo international Airport (SANR)
Time Latitude Longitude Altitude Speed Heading
2026-05-09 13:44 -32.82841 -68.79653 2315 ft 0 kts 90°
2026-05-09 13:54 -32.82841 -68.79652 2315 ft 0 kts 97°
2026-05-09 13:54 -32.82845 -68.79650 2315 ft 2 kts 197°
2026-05-09 13:54 -32.82852 -68.79686 2315 ft 6 kts 264°
2026-05-09 13:54 -32.82898 -68.79711 2315 ft 14 kts 176°
2026-05-09 13:55 -32.82937 -68.79614 2315 ft 14 kts 127°
2026-05-09 13:55 -32.83013 -68.79536 2315 ft 13 kts 141°
2026-05-09 13:55 -32.83095 -68.79507 2315 ft 12 kts 182°
2026-05-09 13:55 -32.83182 -68.79511 2315 ft 12 kts 181°
2026-05-09 13:56 -32.83277 -68.79516 2315 ft 14 kts 185°
2026-05-09 13:56 -32.83384 -68.79518 2315 ft 15 kts 177°
2026-05-09 13:56 -32.83498 -68.79517 2315 ft 16 kts 181°
2026-05-09 13:56 -32.83619 -68.79518 2315 ft 17 kts 180°
2026-05-09 13:57 -32.83748 -68.79522 2315 ft 18 kts 181°
2026-05-09 13:57 -32.83870 -68.79524 2315 ft 17 kts 180°
2026-05-09 13:57 -32.83989 -68.79524 2315 ft 16 kts 178°
2026-05-09 13:57 -32.84098 -68.79475 2315 ft 17 kts 160°
2026-05-09 13:58 -32.84205 -68.79433 2315 ft 7 kts 160°
2026-05-09 13:58 -32.84222 -68.79427 2315 ft 3 kts 162°
2026-05-09 13:58 -32.84277 -68.79373 2315 ft 7 kts 123°
2026-05-09 13:58 -32.84331 -68.79324 2315 ft 12 kts 162°
2026-05-09 13:59 -32.84415 -68.79311 2315 ft 5 kts 60°
2026-05-09 13:59 -32.84300 -68.79308 2315 ft 45 kts
2026-05-09 13:59 -32.83674 -68.79295 2315 ft 126 kts
2026-05-09 13:59 -32.82641 -68.79273 2555 ft 155 kts
2026-05-09 14:00 -32.81691 -68.79248 3564 ft 127 kts 359°
2026-05-09 14:00 -32.81410 -68.79246 3815 ft 125 kts
2026-05-09 14:00 -32.79744 -68.78947 4614 ft 148 kts
2026-05-09 14:00 -32.78822 -68.78901 5450 ft 132 kts 350°
2026-05-09 14:01 -32.77832 -68.79140 5633 ft 161 kts 351°
2026-05-09 14:01 -32.76741 -68.79398 6269 ft 149 kts 341°
2026-05-09 14:01 -32.75752 -68.79472 6827 ft 149 kts
2026-05-09 14:01 -32.74712 -68.79015 6978 ft 173 kts 40°
2026-05-09 14:02 -32.74203 -68.77727 7385 ft 177 kts 83°
2026-05-09 14:02 -32.74087 -68.76453 8348 ft 143 kts 80°
2026-05-09 14:02 -32.74008 -68.75164 8413 ft 174 kts 89°
2026-05-09 14:02 -32.74142 -68.73707 8711 ft 182 kts 106°
2026-05-09 14:03 -32.74560 -68.72256 9047 ft 186 kts 109°
2026-05-09 14:03 -32.74976 -68.70790 9372 ft 188 kts 98°
2026-05-09 14:03 -32.74730 -68.69308 9731 ft 183 kts 63°
2026-05-09 14:03 -32.74182 -68.67915 10064 ft 185 kts 66°
2026-05-09 14:04 -32.73731 -68.66481 10391 ft 186 kts 71°
2026-05-09 14:04 -32.73339 -68.65009 10719 ft 186 kts 72°
2026-05-09 14:04 -32.72818 -68.63617 11037 ft 184 kts 47°
2026-05-09 14:04 -32.71802 -68.62692 11386 ft 181 kts 28°
2026-05-09 14:05 -32.70674 -68.62045 11710 ft 180 kts 22°
2026-05-09 14:05 -32.69513 -68.61478 12035 ft 180 kts 20°
2026-05-09 14:05 -32.68347 -68.60900 12321 ft 182 kts 27°
2026-05-09 14:05 -32.67214 -68.60152 12546 ft 185 kts 22°
2026-05-09 14:06 -32.66038 -68.59621 12885 ft 181 kts 16°
2026-05-09 14:06 -32.64836 -68.59167 13206 ft 180 kts 17°
2026-05-09 14:06 -32.63642 -68.58675 13505 ft 182 kts 18°
2026-05-09 14:06 -32.62397 -68.58143 13594 ft 192 kts 18°
2026-05-09 14:07 -32.61112 -68.57587 13685 ft 200 kts 18°
2026-05-09 14:07 -32.59785 -68.57011 13773 ft 206 kts 18°
2026-05-09 14:07 -32.58393 -68.56405 13859 ft 211 kts 18°
2026-05-09 14:07 -32.56998 -68.55798 13943 ft 215 kts 18°
2026-05-09 14:08 -32.55577 -68.55180 14025 ft 218 kts 18°
2026-05-09 14:08 -32.54136 -68.54553 14107 ft 221 kts 18°
2026-05-09 14:08 -32.52652 -68.53909 14189 ft 224 kts 18°
2026-05-09 14:08 -32.51187 -68.53272 14268 ft 226 kts 18°
2026-05-09 14:09 -32.49711 -68.52631 14347 ft 227 kts 18°
2026-05-09 14:09 -32.48212 -68.51981 14426 ft 228 kts 18°
2026-05-09 14:09 -32.46691 -68.51321 14505 ft 229 kts 18°
2026-05-09 14:09 -32.45177 -68.50665 14583 ft 230 kts 18°
2026-05-09 14:10 -32.42153 -68.49353 14738 ft 231 kts 18°
2026-05-09 14:10 -32.40623 -68.48690 14816 ft 231 kts 18°
2026-05-09 14:10 -32.39091 -68.48026 14894 ft 232 kts 18°
2026-05-09 14:11 -32.37584 -68.47373 14970 ft 232 kts 18°
2026-05-09 14:11 -32.36057 -68.46712 15047 ft 232 kts 18°
2026-05-09 14:11 -32.34507 -68.46042 15126 ft 232 kts 18°
2026-05-09 14:11 -32.32985 -68.45384 15203 ft 232 kts 18°
2026-05-09 14:12 -32.31462 -68.44727 15280 ft 232 kts 18°
2026-05-09 14:12 -32.29950 -68.44074 15357 ft 232 kts 18°
2026-05-09 14:12 -32.28410 -68.43409 15435 ft 232 kts 18°
2026-05-09 14:12 -32.26889 -68.42752 15512 ft 232 kts 17°
2026-05-09 14:13 -32.25354 -68.42090 15589 ft 232 kts 17°
2026-05-09 14:14 -32.14701 -68.37505 16132 ft 231 kts 17°
2026-05-09 14:15 -32.13183 -68.36852 16210 ft 231 kts 17°
2026-05-09 14:15 -32.11652 -68.36194 16289 ft 231 kts 17°
2026-05-09 14:15 -32.10128 -68.35539 16367 ft 231 kts 17°
2026-05-09 14:15 -32.08648 -68.34904 16443 ft 230 kts 16°
2026-05-09 14:16 -32.07109 -68.34242 16517 ft 230 kts 16°
2026-05-09 14:16 -32.05555 -68.33989 16594 ft 223 kts 353°
2026-05-09 14:16 -32.04021 -68.34150 16667 ft 222 kts 349°
2026-05-09 14:16 -32.02479 -68.34368 16740 ft 222 kts 349°
2026-05-09 14:17 -32.00923 -68.34608 16814 ft 222 kts 348°
2026-05-09 14:17 -31.99392 -68.34854 16886 ft 222 kts 348°
2026-05-09 14:17 -31.97859 -68.35107 16959 ft 221 kts 348°
2026-05-09 14:17 -31.96307 -68.35368 17032 ft 221 kts 348°
2026-05-09 14:18 -31.94785 -68.35626 17104 ft 221 kts 347°
2026-05-09 14:18 -31.93245 -68.35888 17177 ft 221 kts 347°
2026-05-09 14:18 -31.91720 -68.36148 17250 ft 221 kts 347°
2026-05-09 14:18 -31.90183 -68.36411 17322 ft 221 kts 347°
2026-05-09 14:19 -31.88684 -68.36668 17393 ft 220 kts 347°
2026-05-09 14:19 -31.87156 -68.36929 17466 ft 220 kts 347°
2026-05-09 14:19 -31.85618 -68.37193 17538 ft 220 kts 347°
2026-05-09 14:19 -31.84079 -68.37457 17611 ft 220 kts 347°
2026-05-09 14:20 -31.82569 -68.37715 17683 ft 220 kts 347°
2026-05-09 14:20 -31.81048 -68.37975 17755 ft 219 kts 347°
2026-05-09 14:20 -31.79551 -68.38232 17826 ft 219 kts 347°
2026-05-09 14:21 -31.76529 -68.38749 17972 ft 219 kts 347°
2026-05-09 14:21 -31.75015 -68.39008 18044 ft 219 kts 347°
2026-05-09 14:21 -31.73508 -68.39265 18115 ft 219 kts 347°
2026-05-09 14:21 -31.72019 -68.39520 18186 ft 219 kts 347°
2026-05-09 14:22 -31.70511 -68.39777 18257 ft 219 kts 347°
2026-05-09 14:22 -31.68994 -68.40037 18329 ft 218 kts 347°
2026-05-09 14:22 -31.67514 -68.40289 18399 ft 218 kts 346°
2026-05-09 14:22 -31.66012 -68.40546 18465 ft 218 kts 346°
2026-05-09 14:23 -31.64520 -68.40801 18477 ft 221 kts 346°
2026-05-09 14:23 -31.62997 -68.41063 18479 ft 223 kts 347°
2026-05-09 14:23 -31.61461 -68.41326 18479 ft 226 kts 347°
2026-05-09 14:23 -31.59905 -68.41592 18479 ft 227 kts 347°
2026-05-09 14:24 -31.58327 -68.41860 18479 ft 229 kts 347°
2026-05-09 14:24 -31.56728 -68.41773 18493 ft 237 kts 15°
2026-05-09 14:24 -31.55201 -68.40948 18485 ft 241 kts 24°
2026-05-09 14:24 -31.53734 -68.39973 18480 ft 243 kts 26°
2026-05-09 14:25 -31.52273 -68.38939 18479 ft 245 kts 27°
2026-05-09 14:25 -31.50821 -68.37877 18478 ft 245 kts 28°
2026-05-09 14:25 -31.49381 -68.36804 18478 ft 246 kts 28°
2026-05-09 14:25 -31.47932 -68.35715 18478 ft 247 kts 29°
2026-05-09 14:26 -31.46470 -68.34609 18478 ft 247 kts 29°
2026-05-09 14:26 -31.45038 -68.33521 18478 ft 247 kts 29°
2026-05-09 14:26 -31.43583 -68.32416 18478 ft 248 kts 29°
2026-05-09 14:26 -31.42136 -68.31316 18478 ft 248 kts 29°
2026-05-09 14:27 -31.40671 -68.30201 18478 ft 248 kts 29°
2026-05-09 14:27 -31.39226 -68.29102 18478 ft 248 kts 29°
2026-05-09 14:27 -31.37761 -68.27988 18478 ft 248 kts 29°
2026-05-09 14:27 -31.36308 -68.26884 18478 ft 248 kts 29°
2026-05-09 14:28 -31.34855 -68.25779 18478 ft 248 kts 29°
2026-05-09 14:28 -31.33409 -68.24682 18478 ft 249 kts 29°
2026-05-09 14:28 -31.31975 -68.23593 18478 ft 249 kts 29°
2026-05-09 14:28 -31.30510 -68.22481 18478 ft 249 kts 29°
2026-05-09 14:29 -31.29075 -68.21392 18478 ft 249 kts 29°
2026-05-09 14:29 -31.27604 -68.20277 18478 ft 249 kts 29°
2026-05-09 14:29 -31.26149 -68.19173 18478 ft 249 kts 29°
2026-05-09 14:29 -31.24692 -68.18070 18478 ft 249 kts 29°
2026-05-09 14:30 -31.23239 -68.16969 18478 ft 249 kts 29°
2026-05-09 14:30 -31.21751 -68.15842 18478 ft 249 kts 29°
2026-05-09 14:30 -31.20312 -68.14752 18478 ft 249 kts 29°
2026-05-09 14:30 -31.18852 -68.13648 18479 ft 249 kts 29°
2026-05-09 14:31 -31.17383 -68.12537 18479 ft 249 kts 29°
2026-05-09 14:31 -31.15908 -68.11421 18479 ft 249 kts 29°
2026-05-09 14:31 -31.14453 -68.10322 18479 ft 249 kts 29°
2026-05-09 14:31 -31.13007 -68.09229 18479 ft 249 kts 29°
2026-05-09 14:32 -31.11552 -68.08131 18479 ft 249 kts 29°
2026-05-09 14:32 -31.10069 -68.07011 18479 ft 249 kts 29°
2026-05-09 14:32 -31.08604 -68.05906 18479 ft 249 kts 29°
2026-05-09 14:32 -31.07152 -68.04810 18479 ft 249 kts 29°
2026-05-09 14:33 -31.05672 -68.03695 18479 ft 249 kts 29°
2026-05-09 14:33 -31.04219 -68.02599 18479 ft 249 kts 29°
2026-05-09 14:33 -31.02750 -68.01494 18480 ft 249 kts 29°
2026-05-09 14:33 -31.01281 -68.00388 18480 ft 249 kts 29°
2026-05-09 14:34 -30.99808 -67.99279 18479 ft 249 kts 29°
2026-05-09 14:34 -30.98369 -67.98196 18479 ft 249 kts 29°
2026-05-09 14:34 -30.96915 -67.97103 18479 ft 248 kts 30°
2026-05-09 14:34 -30.95441 -67.95995 18479 ft 248 kts 30°
2026-05-09 14:35 -30.93999 -67.94910 18479 ft 248 kts 30°
2026-05-09 14:35 -30.92534 -67.93810 18479 ft 247 kts 30°
2026-05-09 14:35 -30.91075 -67.92714 18479 ft 247 kts 30°
2026-05-09 14:35 -30.89642 -67.91637 18479 ft 246 kts 30°
2026-05-09 14:36 -30.88194 -67.90551 18479 ft 246 kts 30°
2026-05-09 14:36 -30.86762 -67.89476 18479 ft 246 kts 30°
2026-05-09 14:36 -30.85332 -67.88403 18479 ft 245 kts 30°
2026-05-09 14:36 -30.83883 -67.87315 18479 ft 245 kts 30°
2026-05-09 14:37 -30.82466 -67.86253 18480 ft 245 kts 30°
2026-05-09 14:37 -30.81021 -67.85171 18480 ft 245 kts 30°
2026-05-09 14:37 -30.79595 -67.84103 18480 ft 245 kts 30°
2026-05-09 14:37 -30.78145 -67.83016 18480 ft 245 kts 30°
2026-05-09 14:38 -30.76707 -67.81941 18480 ft 245 kts 30°
2026-05-09 14:38 -30.75270 -67.80865 18480 ft 245 kts 30°
2026-05-09 14:38 -30.73841 -67.79796 18480 ft 245 kts 30°
2026-05-09 14:38 -30.72415 -67.78730 18480 ft 245 kts 30°
2026-05-09 14:39 -30.70949 -67.77634 18480 ft 245 kts 30°
2026-05-09 14:39 -30.69533 -67.76576 18480 ft 245 kts 30°
2026-05-09 14:39 -30.68087 -67.75497 18480 ft 245 kts 30°
2026-05-09 14:39 -30.66642 -67.74418 18480 ft 245 kts 30°
2026-05-09 14:40 -30.65199 -67.73341 18480 ft 245 kts 30°
2026-05-09 14:40 -30.63779 -67.72282 18480 ft 245 kts 30°
2026-05-09 14:40 -30.62336 -67.71206 18480 ft 245 kts 30°
2026-05-09 14:40 -30.60886 -67.70125 18480 ft 245 kts 30°
2026-05-09 14:41 -30.59460 -67.69063 18480 ft 245 kts 30°
2026-05-09 14:41 -30.58022 -67.67991 18480 ft 245 kts 30°
2026-05-09 14:41 -30.56567 -67.66907 18480 ft 245 kts 30°
2026-05-09 14:41 -30.55112 -67.65824 18480 ft 245 kts 30°
2026-05-09 14:42 -30.53683 -67.64761 18480 ft 245 kts 30°
2026-05-09 14:42 -30.52238 -67.63686 18480 ft 245 kts 30°
2026-05-09 14:42 -30.50790 -67.62609 18480 ft 245 kts 30°
2026-05-09 14:42 -30.49340 -67.61531 18480 ft 245 kts 30°
2026-05-09 14:43 -30.47890 -67.60455 18480 ft 246 kts 30°
2026-05-09 14:43 -30.46447 -67.59383 18480 ft 246 kts 30°
2026-05-09 14:43 -30.45003 -67.58310 18480 ft 246 kts 30°
2026-05-09 14:43 -30.43540 -67.57225 18480 ft 246 kts 30°
2026-05-09 14:44 -30.42096 -67.56154 18480 ft 246 kts 30°
2026-05-09 14:44 -30.40648 -67.55079 18480 ft 246 kts 30°
2026-05-09 14:44 -30.39195 -67.54002 18480 ft 246 kts 30°
2026-05-09 14:44 -30.37750 -67.52931 18480 ft 246 kts 30°
2026-05-09 14:45 -30.36301 -67.51858 18480 ft 246 kts 30°
2026-05-09 14:45 -30.34846 -67.50781 18480 ft 246 kts 30°
2026-05-09 14:45 -30.33391 -67.49704 18480 ft 246 kts 30°
2026-05-09 14:45 -30.31952 -67.48640 18481 ft 246 kts 30°
2026-05-09 14:46 -30.30482 -67.47552 18481 ft 246 kts 30°
2026-05-09 14:46 -30.29040 -67.46485 18481 ft 246 kts 30°
2026-05-09 14:46 -30.27601 -67.45422 18481 ft 246 kts 30°
2026-05-09 14:46 -30.26139 -67.44341 18481 ft 246 kts 30°
2026-05-09 14:47 -30.24676 -67.43261 18481 ft 246 kts 30°
2026-05-09 14:47 -30.23223 -67.42188 18481 ft 246 kts 30°
2026-05-09 14:47 -30.21766 -67.41112 18481 ft 246 kts 30°
2026-05-09 14:47 -30.20313 -67.40040 18481 ft 246 kts 30°
2026-05-09 14:48 -30.18862 -67.38969 18481 ft 246 kts 30°
2026-05-09 14:48 -30.17399 -67.37891 18481 ft 246 kts 30°
2026-05-09 14:48 -30.15963 -67.36832 18481 ft 246 kts 30°
2026-05-09 14:48 -30.14492 -67.35747 18481 ft 246 kts 30°
2026-05-09 14:49 -30.13040 -67.34679 18480 ft 246 kts 29°
2026-05-09 14:49 -30.11586 -67.33607 18478 ft 246 kts 29°
2026-05-09 14:49 -30.10135 -67.32539 18478 ft 246 kts 29°
2026-05-09 14:49 -30.08688 -67.31475 18478 ft 246 kts 29°
2026-05-09 14:50 -30.07218 -67.30394 18478 ft 246 kts 29°
2026-05-09 14:50 -30.05794 -67.29347 18478 ft 245 kts 29°
2026-05-09 14:50 -30.04319 -67.28262 18478 ft 245 kts 29°
2026-05-09 14:50 -30.02872 -67.27200 18478 ft 245 kts 29°
2026-05-09 14:51 -30.01412 -67.26127 18478 ft 245 kts 29°
2026-05-09 14:51 -29.99972 -67.25069 18478 ft 245 kts 29°
2026-05-09 14:51 -29.98523 -67.24006 18478 ft 245 kts 29°
2026-05-09 14:51 -29.97064 -67.22935 18478 ft 245 kts 29°
2026-05-09 14:52 -29.95623 -67.21879 18478 ft 245 kts 29°
2026-05-09 14:52 -29.94182 -67.20822 18478 ft 245 kts 29°
2026-05-09 14:52 -29.92710 -67.19743 18478 ft 245 kts 29°
2026-05-09 14:52 -29.91277 -67.18692 18478 ft 245 kts 29°
2026-05-09 14:53 -29.89815 -67.17620 18478 ft 245 kts 29°
2026-05-09 14:53 -29.88368 -67.16560 18479 ft 245 kts 29°
2026-05-09 14:53 -29.86926 -67.15503 18479 ft 245 kts 29°
2026-05-09 14:53 -29.85485 -67.14449 18479 ft 244 kts 29°
2026-05-09 14:54 -29.84034 -67.13387 18479 ft 244 kts 28°
2026-05-09 14:54 -29.82573 -67.12318 18479 ft 244 kts 28°
2026-05-09 14:54 -29.81136 -67.11269 18479 ft 244 kts 28°
2026-05-09 14:54 -29.79705 -67.10222 18479 ft 243 kts 28°
2026-05-09 14:55 -29.78281 -67.09182 18479 ft 243 kts 28°
2026-05-09 14:55 -29.76829 -67.08122 18479 ft 242 kts 28°
2026-05-09 14:55 -29.75397 -67.07076 18479 ft 242 kts 28°
2026-05-09 14:55 -29.73982 -67.06042 18479 ft 242 kts 28°
2026-05-09 14:56 -29.72539 -67.04990 18480 ft 241 kts 28°
2026-05-09 14:56 -29.71108 -67.03947 18480 ft 241 kts 28°
2026-05-09 14:56 -29.69698 -67.02918 18480 ft 240 kts 28°
2026-05-09 14:56 -29.68287 -67.01890 18480 ft 239 kts 28°
2026-05-09 14:57 -29.66868 -67.00856 18480 ft 239 kts 28°
2026-05-09 14:57 -29.65465 -66.99834 18480 ft 238 kts 28°
2026-05-09 14:57 -29.64047 -66.98802 18480 ft 238 kts 28°
2026-05-09 14:57 -29.62646 -66.97783 18480 ft 237 kts 28°
2026-05-09 14:58 -29.61255 -66.96770 18480 ft 236 kts 27°
2026-05-09 14:58 -29.59863 -66.95758 18480 ft 236 kts 27°
2026-05-09 14:58 -29.58468 -66.94743 18479 ft 235 kts 27°
2026-05-09 14:58 -29.57061 -66.93721 18479 ft 235 kts 27°
2026-05-09 14:59 -29.55677 -66.92715 18479 ft 234 kts 27°
2026-05-09 14:59 -29.54301 -66.91716 18479 ft 234 kts 27°
2026-05-09 14:59 -29.52918 -66.90712 18479 ft 234 kts 27°
2026-05-09 14:59 -29.51529 -66.89704 18479 ft 234 kts 27°
2026-05-09 15:00 -29.50151 -66.88704 18479 ft 234 kts 27°
2026-05-09 15:00 -29.48763 -66.87697 18479 ft 233 kts 27°
2026-05-09 15:00 -29.47392 -66.86702 18479 ft 233 kts 27°
2026-05-09 15:00 -29.46021 -66.85709 18479 ft 233 kts 27°
2026-05-09 15:01 -29.43247 -66.83698 18479 ft 233 kts 27°
2026-05-09 15:01 -29.41865 -66.82697 18479 ft 233 kts 27°
2026-05-09 15:01 -29.40477 -66.81692 18479 ft 233 kts 27°
2026-05-09 15:02 -29.39124 -66.80634 18474 ft 236 kts 37°
2026-05-09 15:02 -29.37970 -66.79263 18481 ft 238 kts 43°
2026-05-09 15:02 -29.36851 -66.77827 18480 ft 239 kts 44°
2026-05-09 15:02 -29.35762 -66.76408 18479 ft 239 kts 44°
2026-05-09 15:03 -29.34650 -66.74949 18479 ft 239 kts 44°
2026-05-09 15:03 -29.33545 -66.73491 18479 ft 239 kts 44°
2026-05-09 15:03 -29.32443 -66.72034 18479 ft 239 kts 44°
2026-05-09 15:03 -29.31356 -66.70596 18479 ft 239 kts 44°
2026-05-09 15:04 -29.30249 -66.69130 18479 ft 239 kts 44°
2026-05-09 15:04 -29.29156 -66.67683 18479 ft 239 kts 44°
2026-05-09 15:06 -29.21484 -66.57532 18388 ft 244 kts 44°
2026-05-09 15:06 -29.20342 -66.56029 18259 ft 247 kts 45°
2026-05-09 15:06 -29.19209 -66.54529 18255 ft 245 kts 45°
2026-05-09 15:06 -29.18095 -66.53054 18270 ft 243 kts 45°
2026-05-09 15:07 -29.16995 -66.51599 18288 ft 242 kts 44°
2026-05-09 15:07 -29.15876 -66.50121 18306 ft 240 kts 44°
2026-05-09 15:07 -29.14780 -66.48675 18324 ft 239 kts 44°
2026-05-09 15:07 -29.13701 -66.47252 18340 ft 239 kts 44°
2026-05-09 15:08 -29.12602 -66.45803 18343 ft 239 kts 44°
2026-05-09 15:08 -29.10410 -66.42918 18344 ft 239 kts 44°
2026-05-09 15:08 -29.09326 -66.41492 18344 ft 238 kts 45°
2026-05-09 15:09 -29.08214 -66.40030 18344 ft 238 kts 45°
2026-05-09 15:10 -29.00641 -66.30082 18341 ft 234 kts 45°
2026-05-09 15:11 -28.99585 -66.28699 18341 ft 233 kts 45°
2026-05-09 15:11 -28.98518 -66.27299 18340 ft 233 kts 45°
2026-05-09 15:11 -28.97455 -66.25907 18341 ft 232 kts 45°
2026-05-09 15:11 -28.96375 -66.24492 18341 ft 232 kts 45°
2026-05-09 15:12 -28.95318 -66.23107 18342 ft 231 kts 46°
2026-05-09 15:12 -28.94260 -66.21718 18343 ft 231 kts 46°
2026-05-09 15:12 -28.93198 -66.20328 18342 ft 231 kts 46°
2026-05-09 15:12 -28.92147 -66.18948 18339 ft 231 kts 46°
2026-05-09 15:13 -28.91108 -66.17588 18342 ft 230 kts 46°
2026-05-09 15:13 -28.90046 -66.16201 18342 ft 230 kts 46°
2026-05-09 15:13 -28.88982 -66.14809 18346 ft 230 kts 46°
2026-05-09 15:13 -28.87939 -66.13446 18344 ft 231 kts 46°
2026-05-09 15:14 -28.86887 -66.12070 18343 ft 231 kts 46°
2026-05-09 15:14 -28.85834 -66.10696 18344 ft 231 kts 46°
2026-05-09 15:14 -28.84773 -66.09312 18345 ft 231 kts 46°
2026-05-09 15:14 -28.83711 -66.07924 18346 ft 231 kts 46°
2026-05-09 15:15 -28.82654 -66.06546 18345 ft 231 kts 46°
2026-05-09 15:15 -28.81937 -66.05611 18346 ft 231 kts 46°
2026-05-09 15:15 -28.80521 -66.03767 18348 ft 231 kts 46°
2026-05-09 15:15 -28.79475 -66.02402 18348 ft 231 kts 46°
2026-05-09 15:16 -28.78403 -66.01006 18345 ft 231 kts 46°
2026-05-09 15:16 -28.77351 -65.99635 18345 ft 231 kts 46°
2026-05-09 15:16 -28.76294 -65.98258 18342 ft 231 kts 46°
2026-05-09 15:16 -28.75212 -65.96853 18346 ft 231 kts 46°
2026-05-09 15:17 -28.74157 -65.95479 18347 ft 231 kts 46°
2026-05-09 15:17 -28.73107 -65.94113 18345 ft 231 kts 45°
2026-05-09 15:17 -28.72034 -65.92716 18343 ft 231 kts 46°
2026-05-09 15:17 -28.70965 -65.91326 18346 ft 231 kts 46°
2026-05-09 15:18 -28.69900 -65.89944 18345 ft 231 kts 46°
2026-05-09 15:18 -28.68837 -65.88564 18344 ft 231 kts 46°
2026-05-09 15:18 -28.67773 -65.87183 18343 ft 231 kts 46°
2026-05-09 15:18 -28.66718 -65.85812 18344 ft 231 kts 46°
2026-05-09 15:19 -28.65651 -65.84427 18342 ft 231 kts 46°
2026-05-09 15:19 -28.64587 -65.83048 18345 ft 231 kts 46°
2026-05-09 15:19 -28.63523 -65.81669 18342 ft 231 kts 46°
2026-05-09 15:19 -28.62460 -65.80292 18344 ft 231 kts 46°
2026-05-09 15:20 -28.61395 -65.78909 18346 ft 231 kts 45°
2026-05-09 15:20 -28.59273 -65.76163 18345 ft 231 kts 46°
2026-05-09 15:20 -28.58018 -65.75088 18355 ft 225 kts 23°
2026-05-09 15:21 -28.56552 -65.74404 18344 ft 226 kts 19°
2026-05-09 15:21 -28.55088 -65.73790 18439 ft 222 kts 18°
2026-05-09 15:21 -28.53628 -65.73201 18444 ft 222 kts 18°
2026-05-09 15:21 -28.52147 -65.72622 18451 ft 223 kts 18°
2026-05-09 15:22 -28.50662 -65.72052 18450 ft 224 kts 17°
2026-05-09 15:22 -28.49181 -65.71488 18447 ft 224 kts 17°
2026-05-09 15:22 -28.47691 -65.70927 18442 ft 225 kts 17°
2026-05-09 15:22 -28.46192 -65.70366 18436 ft 225 kts 17°
2026-05-09 15:23 -28.44679 -65.69800 18438 ft 225 kts 17°
2026-05-09 15:23 -28.43190 -65.69243 18441 ft 225 kts 17°
2026-05-09 15:23 -28.41684 -65.68681 18433 ft 225 kts 17°
2026-05-09 15:23 -28.40201 -65.68129 18435 ft 225 kts 17°
2026-05-09 15:24 -28.38696 -65.67568 18432 ft 226 kts 17°
2026-05-09 15:24 -28.37193 -65.67009 18431 ft 226 kts 17°
2026-05-09 15:24 -28.35698 -65.66454 18429 ft 226 kts 17°
2026-05-09 15:24 -28.34185 -65.65892 18428 ft 226 kts 17°
2026-05-09 15:25 -28.32685 -65.65334 18430 ft 226 kts 17°
2026-05-09 15:25 -28.31192 -65.64780 18430 ft 226 kts 17°
2026-05-09 15:25 -28.29671 -65.64215 18428 ft 226 kts 17°
2026-05-09 15:26 -28.28676 -65.63847 18422 ft 226 kts 17°